Location: Newark
(31.6503°N, 7.8361°W)
Time: 22:16:26
(UTC+00:00)

ISS - Visible Passes

Search period start: 20 November 2019 00:00
Search period end: 30 November 2019 00:00
Orbit: 412 x 421 km, 51.6° (Epoch: 21 November)

Date Brightness Start Highest point End Pass type
(mag) Time Alt. Az. Time Alt. Az. Time Alt. Az.
20 Nov -3.5 18:58:18 10° SW 19:01:37 62° NW 19:02:07 53° N visible
21 Nov -3.7 18:10:00 10° SW 18:13:16 62° SE 18:16:05 14° NE visible
21 Nov -0.5 19:48:42 10° WNW 19:49:01 11° NW 19:49:01 11° NW visible
22 Nov -1.6 18:59:10 10° W 19:01:44 20° NW 19:02:53 17° N visible
23 Nov -2.4 18:10:10 10° WSW 18:13:15 34° NW 18:16:21 10° NNE visible
25 Nov -1.1 18:11:40 10° WNW 18:13:26 13° NNW 18:15:11 10° N visible
